Home > Weather > Fort-de-France > Past weeks

Flag for Martinique Weather for the Past 2 Weeks in Fort-de-France, Martinique

Now
82 °F

Clear.


Feels Like: 85 °F
Forecast: 72 / 84 °F
Wind: 13 mph from East

Location: Le Lamentin Airport

Current Time: Feb 6, 2016 at 9:02:32 AM

Latest Report: Feb 6, 2016 at 8:30 AM


Visibility: N/A

Pressure: 30.09 "Hg

Humidity: 58%

Dew point: 66 °F

Location of Fort-de-FranceLocation

Historic Weather in Fort-de-France — Graph

°F

Fort-de-France Temperature Yesterday

Maximum temperature yesterday: 88 °F (at 12:00 PM)
Minimum temperature yesterday: 66 °F (at 3:00 AM)
Average temperature yesterday: 76 °F

High & Low Weather Summary for the Past Weeks

 TemperatureHumidityPressure
High88 °F (Feb 5, 12:00 PM)100% (Feb 5, 7:00 AM)30.12 "Hg (Feb 5, 7:00 AM)
Low66 °F (Feb 4, 5:00 AM)49% (Jan 28, 1:00 PM)29.86 "Hg (Feb 3, 3:30 PM)
Average78 °F73%30.00 "Hg
* Reported Jan 22 8:00 AM — Feb 6 8:00 AM, Fort-de-France, Weather by CustomWeather, © 2016

Note: Actual official high and low records may vary slightly from our data, if they occured in-between our weather recording intervals... More about our weather records

Advertising

Fort-de-France Weather History for the Previous 24 Hours

 ConditionsComfort  
Time TempWeatherWind HumidityBarometerVisibility
8:00 AM
Sat, Feb 6
81 °FPassing clouds.10 mph62%30.09 "HgN/A
7:30 AM77 °FPassing clouds.12 mph74%30.07 "HgN/A
7:00 AM77 °FClear.8 mph69%30.07 "HgN/A
6:30 AM77 °FPassing clouds.12 mph79%30.04 "HgN/A
6:00 AM77 °FPartly cloudy.15 mph79%30.04 "HgN/A
5:30 AM77 °FPassing clouds.8 mph79%30.01 "HgN/A
5:00 AM77 °FClear.7 mph74%30.01 "HgN/A
4:30 AM77 °FClear.7 mph69%30.01 "HgN/A
4:00 AM77 °FClear.8 mph74%30.01 "HgN/A
3:30 AM77 °FClear.8 mph74%30.01 "HgN/A
3:00 AM77 °FClear.8 mph74%30.01 "HgN/A
2:30 AM77 °FClear.6 mph74%30.01 "HgN/A
2:00 AM77 °FClear.7 mph74%30.04 "HgN/A
1:30 AM79 °FPassing clouds.7 mph70%30.04 "HgN/A
1:00 AM79 °FPassing clouds.9 mph74%30.04 "HgN/A
12:00 AM79 °FPassing clouds.12 mph74%30.07 "HgN/A
11:30 PM
Fri, Feb 5
79 °FPassing clouds.8 mph74%30.07 "HgN/A
11:00 PM79 °FPartly cloudy.7 mph70%30.07 "HgN/A
10:00 PM79 °FClear.6 mph74%30.07 "HgN/A
9:00 PM79 °FClear.8 mph74%30.04 "HgN/A
8:30 PM79 °FOvercast.8 mph74%30.04 "HgN/A
8:00 PM77 °FPartly cloudy.6 mph79%30.04 "HgN/A
7:30 PM77 °FClear.7 mph74%30.01 "HgN/A
7:00 PM77 °FClear.3 mph69%30.01 "HgN/A
6:30 PM77 °FClear.8 mph69%30.01 "HgN/A
6:00 PM77 °FClear.7 mph69%30.01 "HgN/A
5:30 PM79 °FClear.9 mph65%30.01 "HgN/A
5:00 PM81 °FPartly sunny.13 mph62%30.01 "HgN/A
4:30 PM81 °FClear.12 mph66%29.98 "HgN/A
4:00 PM81 °FClear.14 mph66%29.98 "HgN/A
3:30 PM81 °FBroken clouds.13 mph66%29.98 "HgN/A
3:00 PM82 °FBroken clouds.14 mph66%29.98 "HgN/A
2:30 PM84 °FBroken clouds.17 mph62%29.98 "HgN/A
2:00 PM84 °FMostly cloudy.14 mph66%29.98 "HgN/A
1:30 PM84 °FPartly sunny.10 mph66%29.98 "HgN/A
1:00 PM84 °FBroken clouds.12 mph62%29.98 "HgN/A
12:30 PM84 °FPassing clouds.12 mph62%30.01 "HgN/A
12:00 PM88 °FBroken clouds.13 mph55%30.01 "HgN/A
11:30 AM86 °FBroken clouds.8 mph59%30.01 "HgN/A
11:00 AM86 °FPartly sunny.10 mph59%30.04 "HgN/A
10:30 AM86 °FPassing clouds.10 mph59%30.04 "HgN/A
10:00 AM86 °FScattered clouds.10 mph59%30.04 "HgN/A
9:30 AM84 °FClear.9 mph62%30.04 "HgN/A
9:00 AM81 °FClear.5 mph74%30.04 "HgN/A
Weather by CustomWeather, © 2016

See weather overviewHow to use our weather pages